loading
|

SL-8 DEB, 3038

Orbit data source: Space-Track

SL-8 DEB, 3038 is space debris in LEO originally from a launch on Mon, 15 Mar 1965 UTC launched from the Tyuratam Missile And Space Complex (TTMTR). Debris objects in space refer to the collection of defunct objects orbiting the Earth. Examples of debris include non-operational satellites, rocket bodies, and fragments generated from explosions, collisions, or faulty payload assembly.

Loading next visibility...
Next conjunction unknown
Loading greatness...
SL-8 DEB details
Identifier
3038, 1965-020EN
Orbit
LEO
Last TLE update7 hours ago
Origin
Flag of CISRVSN (CIS)
ManufacturerUnknown
MissionSpacecraft
Bus & MotorUnknown bus, Unknown motor
MassUnknown
Launch date (UTC)
1965-03-15 (60 years ago)
Launch vehicleUnknown
Launch site
Tyuratam Missile And Space Complex (TTMTR)
Object type
Payload
Rocket body
Debris
Shape & HBRUnknown
Radar Cross SectionMedium (>0.1 m² and <1 m²)

Expand to show TLE details & history

TLE from 7 hours ago
0 SL-8 DEB
1 03038U 65020EN  24286.53669133  .00032887  00000-0  78337-2 0  9993
2 03038  56.1699  27.5972 0441478 136.1601 227.5327 14.07782671139004
Epoch: 2024-10-12T12:52Z
Definitive object data (Epoch: 2024-10-12T12:52:50.13Z)
Latitude0.00001°
Longitude172.79721°
Altitude1,091.441 km
Speed7.194 km/s
True Right ascension01h 50m 23s
True Declination0° 00' 00"
Sunlit
Object was in full shadow at TLE epoch
Predictive object data (real-time)
Latitude13.03067°
Longitude-179.35011°
Altitude1,020.958 km
Speed7.265 km/s
Apparent Right ascension02h 18m 27s
Apparent Declination-11° 16' 03"
Sunlit
Object is in full shadow
Predictive observer data (real-time)
Local Sidereal Time14:13:32
Azimuth357.489° N
Elevation-61.331°
Doppler factor1
Orbital elements
Apogee1,186.606 km
Perigee546.914 km
Semi-major axis7,244.897 km
Eccentricity0.0441478
Inclination56.1699°
RAAN27.5972°
Arg. of periapsis136.1601°
True anomaly223.93747°
Mean anomaly227.5327°
Eccentric anomaly225.7217°
Mean motion3.51961 °/min
BSTAR0.0078337
Period102.28 mins
No data available

SL-8 DEB Visibility forecast

Observer location: 39.9160978°, -105.1181434

Span
Click to sort rows by Start time (UTC) header in descending order
Start Az.
Max El. time (UTC)
Max El. Az.
Max El.
End time (UTC)
End Az.
8 mins2024-10-13 07:44:31.520Z166.993° S2024-10-13 07:48:31.520Z128.05° SE19.073°2024-10-13 07:52:31.520Z80.736° E
9 mins2024-10-13 09:30:31.520Z230.144° WSW2024-10-13 09:34:31.520Z266.888° W43.739°2024-10-13 09:39:31.520Z42.138° NE
5 mins2024-10-13 11:19:31.520Z300.485° NW2024-10-13 11:21:31.520Z327.871° NNW19.279°2024-10-13 11:24:31.520Z12.216° NNE
5 mins2024-10-13 14:55:31.520Z346.984° N2024-10-13 14:57:31.520Z16.734° NNE16.006°2024-10-13 15:00:31.520Z64.037° ENE
6 mins2024-10-13 16:42:31.520Z317.244° NNW2024-10-13 16:44:31.520Z345.396° N44.674°2024-10-13 16:48:31.520Z134.348° SE